FDX511 KMCO-KIAH

Flight info

Callsign FDX511
Flight time N/A
Altitude 38000
Route OSPRY1 REMIS ROZZI Y280 LEV LINKK1
Aircraft B763/H-SDE3FGHIM3RWXY/LB1

Departure

Time N/A
Airport Orlando International Airport (KMCO)

Arrival

Time 2026-05-04 21:54
Airport George Bush Intercontinental Airport (KIAH)
Time Latitude Longitude Altitude Speed Heading
2026-05-04 20:26 28.00344 -85.65704 38008 ft 386 kts 288°
2026-05-04 20:26 28.01214 -85.68630 38005 ft 388 kts 288°
2026-05-04 20:26 28.02950 -85.74400 38002 ft 392 kts 288°
2026-05-04 20:27 28.04741 -85.80273 38002 ft 395 kts 289°
2026-05-04 20:27 28.06527 -85.86185 38004 ft 397 kts 288°
2026-05-04 20:28 28.08268 -85.92114 37997 ft 396 kts 288°
2026-05-04 20:28 28.10029 -85.98027 38006 ft 397 kts 288°
2026-05-04 20:29 28.11795 -86.03932 37999 ft 396 kts 288°
2026-05-04 20:29 28.13398 -86.09878 38019 ft 393 kts 276°
2026-05-04 20:30 28.13327 -86.12947 38025 ft 390 kts 258°
2026-05-04 20:30 28.12535 -86.15881 37990 ft 391 kts 250°
2026-05-04 20:30 28.10350 -86.21515 37991 ft 392 kts 247°
2026-05-04 20:31 28.08459 -86.27283 38025 ft 389 kts 265°
2026-05-04 20:31 28.08548 -86.30338 38009 ft 391 kts 281°
2026-05-04 20:31 28.09276 -86.33309 37982 ft 393 kts 289°
2026-05-04 20:32 28.11306 -86.39040 37994 ft 395 kts 292°
2026-05-04 20:32 28.13298 -86.44852 38011 ft 395 kts 289°
2026-05-04 20:33 28.15144 -86.50740 37988 ft 395 kts 288°
2026-05-04 20:33 28.16888 -86.56639 38009 ft 394 kts 288°
2026-05-04 20:34 28.18647 -86.62532 37990 ft 394 kts 288°
2026-05-04 20:34 28.20408 -86.68390 38000 ft 395 kts 289°
2026-05-04 20:35 28.22178 -86.74272 37996 ft 394 kts 288°
2026-05-04 20:35 28.23928 -86.80167 38011 ft 394 kts 289°
2026-05-04 20:36 28.25677 -86.86070 38010 ft 396 kts 288°
2026-05-04 20:36 28.27409 -86.91961 38015 ft 395 kts 288°
2026-05-04 20:37 28.29171 -86.97884 38006 ft 395 kts 288°
2026-05-04 20:37 28.30929 -87.03785 38004 ft 394 kts 288°
2026-05-04 20:38 28.32655 -87.09695 38009 ft 394 kts 288°
2026-05-04 20:38 28.34348 -87.15592 38008 ft 395 kts 288°
2026-05-04 20:39 28.36104 -87.21521 38008 ft 395 kts 288°
2026-05-04 20:39 28.37900 -87.27430 37996 ft 395 kts 289°
2026-05-04 20:40 28.39645 -87.33340 37984 ft 395 kts 287°
2026-05-04 20:40 28.41337 -87.39252 37997 ft 394 kts 288°
2026-05-04 20:41 28.43086 -87.45170 38003 ft 396 kts 288°
2026-05-04 20:41 28.44538 -87.50055 38009 ft 398 kts 288°
2026-05-04 20:42 28.45956 -87.55041 38010 ft 400 kts 288°
2026-05-04 20:42 28.47986 -87.62099 38005 ft 404 kts 288°
2026-05-04 20:43 28.49756 -87.68179 37994 ft 408 kts 288°
2026-05-04 20:43 28.51287 -87.73254 38010 ft 410 kts 288°
2026-05-04 20:44 28.53084 -87.79456 38005 ft 413 kts 288°
2026-05-04 20:44 28.54848 -87.85671 37997 ft 416 kts 288°
2026-05-04 20:45 28.56666 -87.91986 38002 ft 419 kts 288°
2026-05-04 20:45 28.58474 -87.98282 38004 ft 422 kts 288°
2026-05-04 20:46 28.60272 -88.04628 38020 ft 424 kts 287°
2026-05-04 20:46 28.62096 -88.11058 37994 ft 427 kts 287°
2026-05-04 20:47 28.63956 -88.17491 38005 ft 429 kts 288°
2026-05-04 20:47 28.65806 -88.23909 38011 ft 428 kts 287°
2026-05-04 20:48 28.67663 -88.30369 38006 ft 428 kts 288°
2026-05-04 20:48 28.69491 -88.36818 38016 ft 428 kts 287°
2026-05-04 20:49 28.71299 -88.43298 38014 ft 429 kts 287°
2026-05-04 20:49 28.73124 -88.49739 37989 ft 427 kts 288°
2026-05-04 20:50 28.74995 -88.56163 38000 ft 428 kts 288°
2026-05-04 20:50 28.76800 -88.62617 38003 ft 428 kts 287°
2026-05-04 20:51 28.78588 -88.69099 37999 ft 428 kts 287°
2026-05-04 20:51 28.80382 -88.75579 38009 ft 428 kts 287°
2026-05-04 20:52 28.82211 -88.82058 38006 ft 428 kts 288°
2026-05-04 20:52 28.84057 -88.88499 38013 ft 428 kts 287°
2026-05-04 20:53 28.85836 -88.94969 38001 ft 428 kts 287°
2026-05-04 20:53 28.87636 -89.01469 38004 ft 427 kts 287°
2026-05-04 20:54 28.89411 -89.07898 38003 ft 427 kts 287°
2026-05-04 20:54 28.91230 -89.14378 37931 ft 429 kts 287°
2026-05-04 20:55 28.93040 -89.20879 37686 ft 430 kts 287°
2026-05-04 20:55 28.93946 -89.24182 37519 ft 428 kts 287°
2026-05-04 20:55 28.94856 -89.27428 37340 ft 427 kts 287°
2026-05-04 20:56 28.95744 -89.30642 37174 ft 426 kts 287°
2026-05-04 20:56 28.96618 -89.33876 37047 ft 424 kts 287°
2026-05-04 20:56 28.98371 -89.40277 36998 ft 425 kts 287°
2026-05-04 20:57 29.00153 -89.46746 37015 ft 427 kts 287°
2026-05-04 20:57 29.01948 -89.53227 37014 ft 429 kts 287°
2026-05-04 20:58 29.03720 -89.59743 37018 ft 428 kts 287°
2026-05-04 20:58 29.05492 -89.66263 36998 ft 428 kts 287°
2026-05-04 20:59 29.07266 -89.72710 37013 ft 428 kts 287°
2026-05-04 20:59 29.09038 -89.79237 36989 ft 428 kts 287°
2026-05-04 21:00 29.10811 -89.85750 36998 ft 429 kts 287°
2026-05-04 21:00 29.12555 -89.92221 36993 ft 428 kts 287°
2026-05-04 21:01 29.14323 -89.98742 36994 ft 428 kts 286°
2026-05-04 21:01 29.16058 -90.05251 37009 ft 427 kts 287°
2026-05-04 21:02 29.17711 -90.11770 36996 ft 426 kts 282°
2026-05-04 21:02 29.18662 -90.18494 36992 ft 427 kts 277°
2026-05-04 21:03 29.19385 -90.25257 36995 ft 427 kts 277°
2026-05-04 21:03 29.20151 -90.31998 36996 ft 426 kts 278°
2026-05-04 21:04 29.21027 -90.38685 36998 ft 426 kts 278°
2026-05-04 21:04 29.21900 -90.45407 37008 ft 426 kts 277°
2026-05-04 21:05 29.22737 -90.52093 36996 ft 427 kts 278°
2026-05-04 21:05 29.23573 -90.58748 37028 ft 426 kts 278°
2026-05-04 21:06 29.24419 -90.65502 37005 ft 427 kts 278°
2026-05-04 21:06 29.25237 -90.72218 36996 ft 428 kts 278°
2026-05-04 21:07 29.26064 -90.78958 37005 ft 427 kts 278°
2026-05-04 21:07 29.26884 -90.85699 37014 ft 426 kts 278°
2026-05-04 21:08 29.27703 -90.92416 37006 ft 427 kts 277°
2026-05-04 21:08 29.28538 -90.99179 37009 ft 426 kts 278°
2026-05-04 21:09 29.29387 -91.05877 37000 ft 427 kts 278°
2026-05-04 21:09 29.30212 -91.12636 37001 ft 426 kts 277°
2026-05-04 21:10 29.31023 -91.19370 36993 ft 427 kts 277°
2026-05-04 21:10 29.31831 -91.26079 37003 ft 427 kts 277°
2026-05-04 21:11 29.32614 -91.32841 37012 ft 428 kts 277°
2026-05-04 21:11 29.33405 -91.39597 37017 ft 428 kts 277°
2026-05-04 21:12 29.34191 -91.46347 37003 ft 427 kts 277°
2026-05-04 21:12 29.34976 -91.53045 37013 ft 426 kts 278°
2026-05-04 21:13 29.35806 -91.59794 36973 ft 427 kts 278°
2026-05-04 21:13 29.36219 -91.63219 36674 ft 430 kts 277°
2026-05-04 21:13 29.36612 -91.66604 36416 ft 428 kts 277°
2026-05-04 21:14 29.36990 -91.69959 36154 ft 425 kts 277°
2026-05-04 21:14 29.37374 -91.73301 35906 ft 423 kts 277°
2026-05-04 21:14 29.37762 -91.76684 35660 ft 424 kts 277°
2026-05-04 21:14 29.38145 -91.80047 35409 ft 424 kts 277°
2026-05-04 21:15 29.38392 -91.82234 35243 ft 424 kts 277°
2026-05-04 21:15 29.38792 -91.85712 34970 ft 425 kts 277°
2026-05-04 21:15 29.39180 -91.89054 34711 ft 426 kts 277°
2026-05-04 21:15 29.39567 -91.92405 34468 ft 427 kts 277°
2026-05-04 21:16 29.39959 -91.95831 34221 ft 427 kts 277°
2026-05-04 21:16 29.40343 -91.99159 33972 ft 426 kts 277°
2026-05-04 21:16 29.40738 -92.02554 33721 ft 427 kts 277°
2026-05-04 21:16 29.41123 -92.05938 33475 ft 427 kts 277°
2026-05-04 21:17 29.41509 -92.09335 33243 ft 428 kts 277°
2026-05-04 21:17 29.41887 -92.12717 33000 ft 429 kts 277°
2026-05-04 21:17 29.42266 -92.16109 32749 ft 429 kts 277°
2026-05-04 21:17 29.42646 -92.19497 32502 ft 429 kts 277°
2026-05-04 21:18 29.43041 -92.22991 32228 ft 430 kts 277°
2026-05-04 21:18 29.43441 -92.26436 31973 ft 431 kts 277°
2026-05-04 21:18 29.43820 -92.29822 31721 ft 431 kts 277°
2026-05-04 21:18 29.44102 -92.32314 31539 ft 432 kts 277°
2026-05-04 21:19 29.44517 -92.35961 31295 ft 419 kts 277°
2026-05-04 21:19 29.44786 -92.38327 31117 ft 411 kts 278°
2026-05-04 21:19 29.45165 -92.41537 30867 ft 403 kts 278°
2026-05-04 21:20 29.45534 -92.44717 30617 ft 401 kts 277°
2026-05-04 21:20 29.45831 -92.47906 30367 ft 403 kts 275°
2026-05-04 21:20 29.46011 -92.51126 30117 ft 406 kts 273°
2026-05-04 21:20 29.46133 -92.54365 29866 ft 407 kts 272°
2026-05-04 21:21 29.46244 -92.57591 29618 ft 408 kts 272°
2026-05-04 21:21 29.46347 -92.60837 29369 ft 409 kts 272°
2026-05-04 21:21 29.46448 -92.64121 29118 ft 409 kts 272°
2026-05-04 21:21 29.46571 -92.67388 28868 ft 410 kts 273°
2026-05-04 21:22 29.46724 -92.70661 28617 ft 410 kts 274°
2026-05-04 21:22 29.46877 -92.73909 28369 ft 411 kts 273°
2026-05-04 21:22 29.47025 -92.77209 28116 ft 411 kts 273°
2026-05-04 21:22 29.47183 -92.80489 27866 ft 412 kts 274°
2026-05-04 21:23 29.47355 -92.83778 27614 ft 412 kts 274°
2026-05-04 21:23 29.47518 -92.87052 27365 ft 413 kts 274°
2026-05-04 21:23 29.47664 -92.90339 27114 ft 413 kts 273°
2026-05-04 21:23 29.47806 -92.93649 26863 ft 414 kts 273°
2026-05-04 21:24 29.47938 -92.96939 26613 ft 414 kts 273°
2026-05-04 21:24 29.48063 -93.00233 26363 ft 415 kts 273°
2026-05-04 21:24 29.48232 -93.03550 26110 ft 415 kts 274°
2026-05-04 21:24 29.48430 -93.06827 25740 ft 407 kts 274°
2026-05-04 21:25 29.48604 -93.10031 25319 ft 399 kts 274°
2026-05-04 21:25 29.48734 -93.13209 24889 ft 392 kts 273°
2026-05-04 21:25 29.48846 -93.16311 24463 ft 385 kts 273°
2026-05-04 21:25 29.48966 -93.19345 24039 ft 379 kts 273°
2026-05-04 21:26 29.49082 -93.22348 23612 ft 373 kts 273°
2026-05-04 21:26 29.49202 -93.25372 23186 ft 388 kts 273°
2026-05-04 21:26 29.49313 -93.28444 22760 ft 381 kts 272°
2026-05-04 21:26 29.49417 -93.31439 22336 ft 375 kts 272°
2026-05-04 21:27 29.49514 -93.34405 21909 ft 369 kts 272°
2026-05-04 21:27 29.49602 -93.37346 21480 ft 363 kts 272°
2026-05-04 21:27 29.49684 -93.40209 21056 ft 358 kts 272°
2026-05-04 21:27 29.49766 -93.43046 20629 ft 353 kts 272°
2026-05-04 21:28 29.49869 -93.45863 20199 ft 348 kts 273°
2026-05-04 21:28 29.49985 -93.48627 19772 ft 344 kts 273°
2026-05-04 21:28 29.50101 -93.51200 19369 ft 340 kts 274°
2026-05-04 21:28 29.50220 -93.53886 18945 ft 336 kts 273°
2026-05-04 21:29 29.50324 -93.56539 18520 ft 332 kts 273°
2026-05-04 21:29 29.50422 -93.59171 18094 ft 328 kts 273°
2026-05-04 21:29 29.50513 -93.61786 17685 ft 325 kts 272°
2026-05-04 21:29 29.50604 -93.64375 17303 ft 320 kts 272°
2026-05-04 21:30 29.50690 -93.66880 16931 ft 316 kts 272°
2026-05-04 21:30 29.50775 -93.69402 16551 ft 312 kts 272°
2026-05-04 21:30 29.50858 -93.71874 16174 ft 308 kts 272°
2026-05-04 21:30 29.50940 -93.74300 15800 ft 304 kts 272°
2026-05-04 21:31 29.51088 -93.78711 15108 ft 298 kts 272°
2026-05-04 21:31 29.51168 -93.81084 14730 ft 295 kts 272°
2026-05-04 21:31 29.51248 -93.83426 14353 ft 292 kts 272°
2026-05-04 21:32 29.51328 -93.85743 13976 ft 289 kts 273°
2026-05-04 21:32 29.51410 -93.88039 13600 ft 286 kts 273°
2026-05-04 21:32 29.51500 -93.90327 13220 ft 284 kts 273°
2026-05-04 21:32 29.51598 -93.92563 12847 ft 281 kts 273°
2026-05-04 21:33 29.51704 -93.94814 12467 ft 279 kts 274°
2026-05-04 21:33 29.51795 -93.97007 12094 ft 277 kts 273°
2026-05-04 21:33 29.51879 -93.99219 11721 ft 275 kts 273°
2026-05-04 21:33 29.51965 -94.01400 11425 ft 271 kts 273°
2026-05-04 21:34 29.52051 -94.03550 11050 ft 270 kts 273°
2026-05-04 21:34 29.52212 -94.05693 10669 ft 270 kts 279°
2026-05-04 21:34 29.52671 -94.07773 10309 ft 269 kts 289°
2026-05-04 21:34 29.53490 -94.09692 10114 ft 265 kts 299°
2026-05-04 21:35 29.54538 -94.11496 10023 ft 263 kts 303°
2026-05-04 21:35 29.55627 -94.13185 10003 ft 267 kts 305°
2026-05-04 21:35 29.56761 -94.14880 9998 ft 269 kts 306°
2026-05-04 21:35 29.57925 -94.16608 9997 ft 271 kts 306°
2026-05-04 21:36 29.59082 -94.18314 9997 ft 272 kts 306°
2026-05-04 21:36 29.60242 -94.20014 9996 ft 272 kts 306°
2026-05-04 21:36 29.61418 -94.21729 9995 ft 272 kts 306°
2026-05-04 21:36 29.62577 -94.23440 9995 ft 272 kts 306°
2026-05-04 21:37 29.63735 -94.25172 9994 ft 272 kts 306°
2026-05-04 21:37 29.64893 -94.26900 9994 ft 273 kts 306°
2026-05-04 21:37 29.66057 -94.28632 9993 ft 273 kts 306°
2026-05-04 21:37 29.67215 -94.30357 9994 ft 273 kts 306°
2026-05-04 21:38 29.68381 -94.32095 9993 ft 273 kts 306°
2026-05-04 21:38 29.69538 -94.33821 9994 ft 273 kts 306°
2026-05-04 21:38 29.70704 -94.35562 9993 ft 273 kts 306°
2026-05-04 21:38 29.71850 -94.37276 9994 ft 273 kts 306°
2026-05-04 21:39 29.73008 -94.39009 9993 ft 273 kts 306°
2026-05-04 21:39 29.73815 -94.40219 9993 ft 273 kts 306°
2026-05-04 21:39 29.74971 -94.41952 9993 ft 273 kts 306°
2026-05-04 21:39 29.76120 -94.43690 9994 ft 273 kts 305°
2026-05-04 21:40 29.77250 -94.45439 9993 ft 273 kts 304°
2026-05-04 21:40 29.78377 -94.47188 9994 ft 273 kts 304°
2026-05-04 21:40 29.79509 -94.48941 9993 ft 273 kts 305°
2026-05-04 21:40 29.80656 -94.50714 9993 ft 273 kts 305°
2026-05-04 21:41 29.81790 -94.52462 9993 ft 273 kts 305°
2026-05-04 21:41 29.82919 -94.54194 9994 ft 273 kts 305°
2026-05-04 21:41 29.84077 -94.55961 9994 ft 273 kts 305°
2026-05-04 21:41 29.85224 -94.57703 9993 ft 273 kts 305°
2026-05-04 21:42 29.86375 -94.59441 9994 ft 273 kts 306°
2026-05-04 21:42 29.87529 -94.61176 9993 ft 273 kts 306°
2026-05-04 21:42 29.88676 -94.62906 9994 ft 273 kts 306°
2026-05-04 21:42 29.89830 -94.64649 9993 ft 273 kts 305°
2026-05-04 21:43 29.90982 -94.66393 9993 ft 273 kts 305°
2026-05-04 21:43 29.92140 -94.68152 9994 ft 273 kts 305°
2026-05-04 21:43 29.93278 -94.69887 9994 ft 273 kts 305°
2026-05-04 21:43 29.94422 -94.71640 9993 ft 273 kts 305°
2026-05-04 21:44 29.95557 -94.73390 9993 ft 273 kts 305°
2026-05-04 21:44 29.96697 -94.75164 9993 ft 273 kts 304°
2026-05-04 21:44 29.97805 -94.76959 9992 ft 272 kts 301°
2026-05-04 21:44 29.98522 -94.78936 9997 ft 269 kts 284°
2026-05-04 21:45 29.98824 -94.81073 9998 ft 269 kts 276°
2026-05-04 21:45 29.98964 -94.83204 9997 ft 269 kts 274°
2026-05-04 21:45 29.99055 -94.85366 9958 ft 270 kts 273°
2026-05-04 21:45 29.99141 -94.87548 9748 ft 272 kts 273°
2026-05-04 21:46 29.99229 -94.89741 9501 ft 271 kts 273°
2026-05-04 21:46 29.99318 -94.91909 9251 ft 269 kts 273°
2026-05-04 21:46 29.99538 -94.94035 9000 ft 267 kts 282°
2026-05-04 21:46 30.00064 -94.96084 8752 ft 265 kts 288°
2026-05-04 21:47 30.00630 -94.98098 8427 ft 261 kts 284°
2026-05-04 21:47 30.00951 -95.00075 7943 ft 238 kts 279°
2026-05-04 21:47 30.01035 -95.01868 7446 ft 214 kts 269°
2026-05-04 21:47 30.00934 -95.03567 6579 ft 211 kts 267°
2026-05-04 21:48 30.00851 -95.05190 6040 ft 198 kts 269°
2026-05-04 21:48 30.00793 -95.06747 5555 ft 192 kts 270°
2026-05-04 21:48 30.00756 -95.08290 5152 ft 190 kts 271°
2026-05-04 21:48 30.00737 -95.09903 4055 ft 212 kts 272°
2026-05-04 21:49 30.00728 -95.11547 3616 ft 195 kts 271°
2026-05-04 21:49 30.00726 -95.13040 3443 ft 177 kts 271°
2026-05-04 21:49 30.00734 -95.14425 3244 ft 172 kts 272°
2026-05-04 21:49 30.00750 -95.15823 3018 ft 170 kts 272°
2026-05-04 21:50 30.00747 -95.17173 2788 ft 168 kts 270°
2026-05-04 21:50 30.00707 -95.18529 2566 ft 167 kts 273°
2026-05-04 21:50 30.00729 -95.19857 2330 ft 168 kts 270°
2026-05-04 21:50 30.00708 -95.21186 2019 ft 163 kts 270°
2026-05-04 21:51 30.00709 -95.22437 1757 ft 151 kts 270°
2026-05-04 21:51 30.00716 -95.23622 1530 ft 144 kts 270°
2026-05-04 21:51 30.00714 -95.24782 1276 ft 146 kts 269°
2026-05-04 21:51 30.00713 -95.25952 1081 ft 146 kts 270°
2026-05-04 21:52 30.00719 -95.27136 1077 ft 147 kts 269°
2026-05-04 21:52 30.00721 -95.28344 959 ft 154 kts 269°
2026-05-04 21:52 30.00712 -95.29589 737 ft 154 kts 268°
2026-05-04 21:52 30.00735 -95.30813 527 ft 151 kts 271°
2026-05-04 21:53 30.00720 -95.32017 353 ft 150 kts 270°
2026-05-04 21:53 30.00719 -95.33165 115 ft 135 kts 269°
2026-05-04 21:53 30.00712 -95.34048 111 ft 93 kts 270°
2026-05-04 21:53 30.00717 -95.34691 111 ft 67 kts 270°
2026-05-04 21:54 30.00710 -95.35139 111 ft 48 kts 268°
2026-05-04 21:54 30.00712 -95.35459 111 ft 34 kts 253°
2026-05-04 21:54 30.00634 -95.35569 111 ft 1 kts 219°
2026-05-04 21:54 30.00492 -95.35622 111 ft 27 kts 178°
2026-05-04 21:55 30.00284 -95.35616 111 ft 28 kts 159°
2026-05-04 21:55 30.00126 -95.35511 111 ft 25 kts 155°
2026-05-04 21:55 29.99971 -95.35481 111 ft 20 kts 177°
2026-05-04 21:55 29.99815 -95.35480 111 ft 27 kts 181°
2026-05-04 21:56 29.99598 -95.35480 111 ft 35 kts 179°
2026-05-04 21:56 29.99458 -95.35479 111 ft 0 kts 180°
2026-05-04 21:56 29.99437 -95.35479 111 ft 11 kts 180°
2026-05-04 21:56 29.99130 -95.35478 111 ft 43 kts 180°
2026-05-04 21:57 29.98856 -95.35475 111 ft 36 kts 178°
2026-05-04 21:57 29.98659 -95.35386 111 ft 28 kts 155°
2026-05-04 21:57 29.98516 -95.35288 111 ft 13 kts 141°
2026-05-04 21:57 29.98420 -95.35225 111 ft 12 kts 146°
2026-05-04 21:58 29.98411 -95.35208 111 ft 0 kts 101°
2026-05-04 21:59 29.98382 -95.35075 111 ft 33 kts 87°
2026-05-04 21:59 29.98397 -95.34892 111 ft 16 kts 44°
2026-05-04 21:59 29.98434 -95.34879 111 ft 8 kts 357°
2026-05-04 21:59 29.98445 -95.34880 111 ft 0 kts 357°
2026-05-04 22:00 29.98446 -95.34880 111 ft 0 kts 357°
2026-05-04 22:01 28.44975 -81.31642 96 ft 0 kts
2026-05-04 22:05 50.07501 19.78953 791 ft 0 kts 166°